SCP
0 0 0 0 0 0 0 0 0 0 0 0 0 0 0 0 0 0 0 0 0 0 0 1 1 1 1 0 0 0 0 0 0 0 0 0 0 0 0 0 0 0 0
0 0 0 0 0 0 0 0 0 0 0 0 0 0 0 0 0 0 0 0 0 0 0 0 1 1 1 1 0 0 0 0 0 0 0 0 0 0 0 0 0 0 0
0 0 0 0 0 0 0 0 0 0 0 0 0 0 0 0 0 0 0 0 0 0 0 0 0 1 1 0 0 0 0 0 0 0 0 0 0 0 0 0 0 0 0
0 0 0 0 0 0 0 0 0 0 0 0 0 0 0 0 0 0 0 0 0 0 0 0 0 0 0 0 0 0 0 0 0 0 0 0 0 0 0 0 0 0 0
0 0 0 0 0 0 0 0 0 0 0 0 0 0 0 0 0 0 0 0 0 0 0 0 0 0 0 0 0 0 0 0 0 0 0 0 0 0 0 0 0 0 0
0 0 0 0 0 0 0 0 0 0 0 0 0 0 0 0 0 0 0 0 0 0 0 0 0 0 0 0 0 0 0 0 0 0 0 0 0 0 0 0 0 0 0
0 0 0 0 0 0 0 0 0 0 0 0 0 0 0 0 0 0 0 0 0 0 0 0 0 0 0 0 0 0 0 0 0 0 0 0 0 0 0 0 0 0 0
0 0 0 0 0 0 0 0 0 0 0 0 0 0 0 0 0 0 0 0 0 0 0 0 0 0 0 0 0 0 0 0 0 0 0 0 0 0 0 0 0 0 0
0 0 0 0 0 0 0 0 0 0 0 0 0 0 0 0 0 0 0 0 0 0 0 0 0 0 0 0 0 0 0 0 0 0 0 0 0 0 0 0 0 0 0
0 0 0 0 0 0 0 0 0 0 0 0 0 0 0 0 0 0 0 0 0 0 0 0 0 0 0 0 0 0 0 0 0 0 0 0 0 0 0 0 0 0 0
0 0 0 -0 -0 -0 0 0 0 0 0 0 0 0 0 0 0 0 0 0 0 0 0 0 0 0 0 0 0 0 0 0 0 0 0 0 0 0 0 0 0 0 0
0 0 0 -0 -0 -0 0 0 0 0 0 0 0 0 0 0 0 0 0 0 0 0 0 0 0 0 0 0 0 0 0 0 0 0 0 0 0 0 0 0 0 0 0
0 0 0 0 0 0 0 0 0 0 0 0 0 0 0 0 0 0 0 0 0 0 0 0 0 0 0 0 0 0 0 0 0 0 0 0 0 0 0 0 0 0 0
0 0 0 0 0 0 0 0 0 0 0 0 0 0 0 0 0 0 0 0 0 0 0 0 0 0 0 0 0 0 0 0 0 0 0 0 0 0 0 0 0 0 0
0 0 0 0 0 0 0 0 0 0 0 0 0 0 0 0 0 0 0 0 0 0 0 0 0 0 0 0 0 0 0 0 0 0 0 0 0 0 0 0 0 0 0
0 0 0 0 0 0 0 0 0 0 0 0 0 0 0 0 0 0 0 0 0 0 0 0 0 0 0 0 0 0 0 0 0 0 0 0 0 0 0 0 0 0 0
0 0 0 0 0 0 0 0 0 0 0 0 0 0 0 0 0 0 0 0 0 0 0 0 0 0 0 0 0 0 0 0 0 0 0 0 0 0 0 0 0 0 0
0 0 0 0 0 0 0 0 0 0 0 0 0 0 0 0 0 0 0 0 0 0 0 0 0 0 0 0 0 0 0 0 0 0 0 0 0 0 0 0 0 0 0
0 0 0 0 0 0 0 0 0 0 0 0 0 0 0 0 0 0 0 0 0 0 0 0 0 0 0 0 0 0 0 0 0 0 0 0 0 0 0 0 0 0 0
0 0 0 0 0 0 0 0 0 0 0 0 0 0 0 0 0 0 0 0 0 0 0 0 0 0 0 0 0 0 0 0 0 0 0 0 0 0 0 0 0 0 0
0 0 0 0 0 0 0 0 0 0 0 0 0 0 0 0 0 0 0 0 0 0 0 0 0 0 0 0 0 0 0 0 0 0 0 0 0 0 0 0 0 0 0
0 0 0 0 0 0 0 0 0 0 0 0 0 0 0 0 0 0 0 0 0 0 0 0 0 0 0 0 0 0 0 0 0 0 0 0 0 0 0 0 0 0 0
0 0 0 0 0 0 0 0 0 0 0 0 0 0 0 0 0 0 0 0 0 0 0 0 0 0 0 0 0 0 0 0 0 0 0 0 0 0 0 0 0 0 0
0 0 0 0 0 0 0 0 0 0 0 0 0 0 0 0 0 0 0 0 0 0 0 0 0 0 0 0 0 0 0 0 0 0 0 0 0 0 0 0 0 0 0
0 0 0 0 0 0 0 0 0 0 0 0 0 0 0 0 0 0 0 0 0 0 0 0 0 0 0 0 0 0 0 0 0 0 0 0 0 0 0 0 0 0 0
0 0 0 0 0 0 0 0 0 0 0 0 0 0 0 0 0 0 0 0 0 0 0 0 0 0 0 0 0 0 0 0 0 0 0 0 0 0 0 0 0 0 0
Wind_Speed
1 0 0 0 1 1 1 1 1 2 2 3 2 2 3 3 3 3 3 6 7 7 7 7 8 8 8 9 9 9 10 11 11 12 12 12 12 12 12 12 12 13 13
1 0 0 1 1 1 1 1 1 1 2 2 3 3 3 3 3 3 3 4 6 6 6 7 7 7 7 8 8 8 8 9 10 11 11 12 12 12 12 12 12 13 13
1 1 0 1 1 1 1 1 2 1 2 2 3 3 3 3 3 3 3 3 3 5 6 5 6 6 7 7 8 8 8 8 9 9 10 10 11 11 11 12 11 12 12
2 1 1 1 1 1 1 1 1 1 2 2 2 3 2 3 3 3 3 3 2 3 4 5 5 5 6 8 8 8 8 8 9 9 9 10 11 11 11 11 11 11 11
2 2 1 0 1 1 1 1 1 1 2 3 3 2 2 2 3 3 2 3 2 2 2 4 5 6 6 7 8 9 9 8 9 9 9 9 10 10 10 10 11 11 11
1 2 1 1 1 1 1 1 1 1 1 2 3 3 3 3 2 2 2 2 2 2 3 3 3 3 5 5 6 7 8 9 9 9 9 9 9 9 10 10 10 11 11
1 2 1 1 1 0 1 1 1 2 2 2 2 3 3 2 2 2 2 2 2 2 2 2 2 2 2 4 4 5 7 7 7 6 7 7 7 8 9 10 11 11 11
1 1 1 0 0 0 1 2 1 1 1 1 1 1 3 3 2 2 2 2 2 2 2 2 2 2 2 2 3 5 5 6 6 6 7 6 6 7 8 8 9 10 10
1 1 0 0 0 0 1 2 1 0 1 2 1 1 1 2 3 3 2 2 2 2 3 2 3 2 2 2 2 3 4 4 5 6 6 5 5 6 7 8 8 9 9
1 1 1 0 0 0 1 1 1 1 1 2 2 1 2 2 2 3 3 2 3 3 3 3 3 3 3 2 3 3 4 4 5 5 5 5 5 5 6 6 6 6 7
1 1 0 0 1 1 1 2 1 1 1 2 1 1 1 2 3 3 4 3 3 2 3 3 3 3 3 3 2 3 3 4 4 4 5 5 6 6 6 5 5 4 5
1 1 1 1 1 1 1 2 2 2 2 2 2 2 2 2 2 3 4 3 4 3 3 3 3 3 3 2 3 4 4 3 3 3 3 4 5 5 5 6 5 5 5
1 2 1 1 1 2 2 2 2 2 2 2 2 2 2 3 2 2 3 3 3 3 2 2 2 2 2 2 2 3 3 3 2 2 2 2 3 4 4 5 5 6 6
2 2 1 2 2 2 2 2 2 3 2 3 3 3 2 3 2 2 2 2 3 2 2 3 2 2 2 2 2 2 1 1 1 2 1 2 3 4 4 5 5 5 5
2 1 1 2 2 2 3 2 2 3 3 3 3 3 3 3 2 3 3 3 3 3 3 3 2 2 1 1 1 1 1 1 2 1 2 2 3 3 3 4 4 4 4
1 1 2 2 3 3 3 2 3 3 3 3 3 3 3 3 3 2 3 3 3 3 3 2 2 2 2 2 1 1 1 2 2 3 3 3 4 4 4 4 4 4 5
2 2 2 3 3 3 3 3 4 4 4 4 3 3 4 4 3 3 2 2 3 3 3 3 2 1 1 2 1 1 2 2 2 4 4 4 5 5 5 4 4 4 4
2 2 2 2 3 3 3 3 4 4 4 4 4 4 5 3 3 3 2 2 2 3 3 3 2 1 2 2 2 2 2 2 2 4 5 5 5 5 5 5 5 5 5
2 2 2 3 3 4 4 4 4 4 4 4 4 4 5 4 4 3 3 2 2 2 2 3 2 1 1 1 1 2 2 2 3 3 4 5 5 5 6 6 6 6 6
2 3 3 3 3 4 4 4 4 4 4 4 4 4 4 4 4 4 3 3 2 1 1 2 2 1 1 1 1 1 2 1 2 2 3 3 4 5 6 7 7 7 7
3 2 3 4 4 3 4 4 4 4 4 4 5 4 4 5 5 4 3 3 2 1 1 2 2 1 2 1 1 1 2 2 2 2 2 2 2 3 4 5 7 8 8
3 3 3 4 4 4 5 6 4 4 4 4 5 5 5 5 5 5 4 4 3 3 3 2 2 3 3 3 2 2 2 1 2 1 2 2 2 4 4 4 6 8 9
3 3 3 3 4 5 7 6 5 4 4 4 4 5 4 4 4 3 4 4 3 5 6 4 4 5 4 4 3 3 3 3 3 2 2 3 2 4 4 5 8 8 9
2 3 3 3 4 6 7 7 6 3 3 4 4 4 4 5 4 3 3 4 4 4 4 4 5 6 6 5 4 4 3 3 3 3 3 3 3 4 4 4 7 9 9
3 3 3 3 4 6 7 6 4 2 3 4 4 4 4 4 5 4 3 4 5 5 4 4 6 7 7 7 5 3 2 2 3 2 3 3 3 3 3 4 5 8 9
3 3 3 4 4 5 7 6 4 2 3 4 4 4 4 5 6 5 3 3 5 6 4 4 4 4 5 5 7 6 5 4 3 3 3 3 2 2 3 2 2 3 5
Wind_Direction
144 157 343 3 359 4 1 339 336 340 339 329 317 317 313 303 299 293 290 290 284 277 268 257 243 235 234 231 231 226 220 216 214 216 217 216 213 211 210 209 206 206 207
136 137 46 21 354 343 339 327 324 327 316 311 314 313 305 301 293 290 287 292 295 289 276 261 256 245 240 235 232 229 224 222 219 217 217 218 216 212 210 211 212 210 209
137 130 80 11 342 343 346 354 344 333 318 316 314 314 312 308 300 292 289 285 291 293 289 277 266 257 248 246 238 232 231 231 226 217 217 219 219 215 211 211 212 214 213
124 117 95 12 348 3 1 350 346 332 322 314 303 304 309 302 295 291 294 293 291 294 302 299 284 264 255 251 242 234 234 235 230 222 219 220 219 215 213 211 211 213 213
123 119 113 27 28 28 358 336 353 320 310 311 298 295 298 290 290 289 294 295 293 297 298 297 296 283 265 258 247 239 233 234 232 227 224 225 224 218 215 213 213 215 215
117 106 97 38 43 37 356 336 316 318 295 304 305 307 296 286 284 275 281 290 294 298 303 298 300 299 287 278 263 249 240 236 232 227 227 227 226 220 215 216 216 216 216
106 102 86 40 34 11 313 327 323 326 328 332 331 318 305 286 273 264 282 290 301 303 306 301 300 305 297 289 278 257 245 237 231 227 228 229 223 217 215 219 219 218 218
98 124 110 86 4 336 347 344 346 328 322 350 337 323 324 323 312 292 291 282 296 303 307 305 298 286 290 293 283 266 252 249 237 229 229 227 222 217 214 219 221 220 217
57 64 100 174 212 143 298 308 314 299 302 310 280 227 285 293 311 302 286 289 300 296 295 295 288 274 274 277 279 275 262 259 251 241 234 226 220 221 221 221 221 219 220
26 31 16 333 264 286 291 294 304 275 263 289 289 241 232 237 269 303 303 291 286 281 286 288 287 280 270 267 263 262 268 258 248 248 239 226 218 220 219 216 216 216 220
332 332 325 23 16 340 298 296 300 289 252 261 274 268 259 253 236 251 286 301 301 285 285 288 280 273 266 260 258 256 267 263 252 250 244 232 224 217 213 207 206 209 216
311 310 310 345 332 308 296 292 285 283 270 263 263 245 240 253 247 239 258 280 292 294 300 287 276 268 263 260 259 262 269 260 242 238 243 240 231 221 216 209 210 214 218
262 278 310 314 307 290 290 294 295 295 280 271 265 259 250 253 253 242 252 269 275 291 298 283 269 264 258 260 263 262 266 252 237 226 232 230 235 228 221 215 216 217 216
228 244 280 297 297 297 302 304 293 289 287 279 274 270 266 262 255 242 241 252 278 283 274 276 282 259 260 265 268 282 271 253 241 218 227 239 233 233 231 225 222 218 218
229 238 266 292 298 298 302 302 289 288 289 283 277 274 271 268 263 256 244 235 241 266 273 271 275 268 271 275 268 273 270 265 256 246 231 230 229 228 230 226 221 217 219
223 238 272 284 288 293 298 296 294 292 293 289 280 280 281 271 273 262 248 241 227 230 255 256 259 275 286 281 255 279 271 263 250 244 236 233 226 217 220 220 216 214 217
227 237 257 268 278 288 293 290 289 291 293 299 302 292 289 277 276 275 262 243 225 213 237 264 261 263 264 274 295 289 274 271 260 248 242 234 226 223 221 219 219 218 218
244 245 253 267 280 289 287 280 283 288 287 296 302 299 295 296 288 285 273 259 234 217 219 247 266 256 239 248 267 275 280 269 262 257 248 241 235 229 226 226 227 228 227
256 261 257 263 275 284 284 279 275 280 283 286 291 291 292 297 294 292 283 275 254 234 215 220 258 268 255 253 264 281 278 274 267 259 251 244 240 237 233 231 231 231 231
251 263 263 259 263 271 274 275 278 281 284 288 287 286 284 279 278 283 283 276 268 264 226 220 245 266 267 276 255 266 280 279 279 277 261 252 242 239 237 235 235 236 235
256 256 268 275 278 277 272 274 277 279 281 291 297 293 286 285 281 272 268 259 251 256 256 240 248 257 264 259 253 251 266 280 276 254 263 256 249 248 243 238 237 237 237
266 266 271 276 285 289 293 290 282 282 279 283 293 298 297 295 299 297 290 270 234 225 238 240 248 248 251 247 244 246 253 259 266 221 234 261 243 253 250 243 240 238 238
264 274 278 281 287 290 293 296 290 278 270 272 277 288 296 299 300 307 309 306 280 248 231 231 241 246 247 238 226 239 238 240 251 242 226 258 246 258 256 249 240 241 240
260 268 280 289 290 290 296 300 297 283 275 277 270 268 275 288 288 297 303 303 294 281 254 239 240 247 246 239 227 232 239 247 263 246 211 247 253 255 262 255 246 243 242
275 275 278 283 288 294 298 301 305 290 284 289 286 276 266 277 287 296 292 296 302 300 286 258 246 251 252 243 223 209 217 225 257 252 199 223 248 260 266 261 249 238 239
266 284 290 284 280 289 295 298 299 269 282 289 294 289 272 267 282 289 270 277 288 292 302 305 289 273 259 242 217 212 213 222 238 253 206 208 234 241 271 259 264 250 237